Location: Unspecified
(47.5840°N, 122.3000°W)
Time: 12:10:09
(UTC+00:00)

Daily predictions for brighter satellites

Satellite Brightness Start Highest point End
(mag) Time Altitude Azimuth Time Altitude Azimuth Time Altitude Azimuth
ATLAS 3B R/B 4.4 12:09:17 24° N 12:09:39 24° N 12:15:48 10° NE
Cosmos 1980 Rocket 4.0 12:28:37 20° SSE 12:28:37 20° SSE 12:30:16 10° SSE
Cosmos 2369 4.1 12:33:32 57° SE 12:33:32 57° SE 12:38:03 10° SSE
COSMOS 2455 2.9 12:38:24 74° SE 12:38:24 74° SE 12:43:52 10° SE
Cosmos 2333 Rocket 3.3 12:52:38 25° N 12:55:24 40° NE 13:00:47 10° ESE
Cosmos 2360 Rocket 3.8 12:53:35 18° N 12:56:45 30° NE 13:01:38 10° ESE
USA 59 Rocket 1.1 13:03:00 36° SSE 13:03:00 36° SSE 13:06:06 10° SSE
Cosmos 841 Rocket 3.6 12:59:06 33° S 13:01:30 72° ESE 13:06:44 10° NNE
Cosmos 1606 Rocket 4.2 13:04:11 48° SSE 13:04:11 48° SSE 13:07:23 10° S
USA 234 3.9 13:02:29 10° ENE 13:08:28 39° N 13:09:53 35° NNW
NOSS 2-1 (E) 4.0 13:11:15 49° SSE 13:11:15 49° SSE 13:14:51 10° SSE
Cosmos 2219 Rocket 4.0 13:10:29 12° N 13:14:36 26° NE 13:19:17 10° ESE
SJ-11-01 4.1 13:15:00 10° N 13:19:42 75° WNW 13:24:21 10° SSW
Cosmos 2322 Rocket 3.1 13:16:06 19° N 13:19:56 45° NE 13:25:22 10° SE
Cosmos 1898 Rocket 3.7 13:27:15 49° WSW 13:27:15 49° WSW 13:32:11 10° S
Cosmos 1726 Rocket 3.3 13:28:08 69° NW 13:28:29 75° W 13:32:40 10° S
NOSS 2-1 (C) 4.1 13:30:06 39° SSW 13:30:06 39° SSW 13:33:54 10° SSE
IRS-1D 3.3 13:25:25 10° NNE 13:30:27 85° WNW 13:35:32 10° SSW
Okean 1 4.3 13:28:48 18° NNE 13:31:06 39° ENE 13:34:27 10° SSE
Meteor 2-3 Rocket 3.7 13:27:43 10° S 13:33:28 89° W 13:39:11 10° N
Meteor 1-26 Rocket 4.5 13:28:49 10° N 13:34:20 68° ENE 13:39:59 10° SSE
Cosmos 2237 4.3 13:34:51 42° WNW 13:36:14 52° WSW 13:41:43 10° S
NOSS 3-1 (C) 4.1 13:33:41 32° NW 13:37:22 63° SW 13:46:07 10° SSE
Helios 1A Rocket 2.2 13:36:49 10° SSE 13:40:08 89° SW 13:40:25 74° NNW
SL-24 R/B 4.3 13:35:10 10° N 13:40:38 80° WNW 13:45:21 10° SSW
COSMOS 2406 3.1 13:35:51 10° SW 13:41:31 72° WNW 13:47:12 10° NNE
SL-16 R/B 2.1 13:44:11 26° NW 13:47:31 73° WSW 13:53:09 10° SSE
Cosmos 2082 Rocket 2.6 13:48:00 34° WNW 13:49:07 37° NW 13:54:21 10° NNE
Cosmos 1937 Rocket 3.8 13:48:18 36° WNW 13:49:30 42° WSW 13:54:18 10° S
Cosmos 1892 Rocket 3.4 13:45:39 10° SSW 13:49:58 65° W 13:54:23 10° N
Cosmos 858 Rocket 4.5 13:47:57 29° NW 13:50:27 58° WSW 13:55:31 10° S
SL-4 R/B 1.7 13:51:22 48° NNW 13:51:42 52° NNE 13:54:50 10° E
Cosmos 2026 Rocket 3.8 13:46:52 10° SSW 13:52:54 77° W 13:59:02 10° N
Cosmos-2242 2.8 13:56:46 13° NNW 14:00:35 76° W 14:04:46 10° S
ATLAS 3B R/B 4.0 13:56:31 13° NNW 14:02:50 36° NNE 14:09:49 10° E
COSMO-SKYMED 1 2.7 13:59:38 10° S 14:03:36 45° W 14:05:43 24° NW
BREEZE M DEB (TANK) 3.8 14:03:01 10° SSW 14:05:04 27° SE 14:08:21 10° ENE
BREEZE-M DEB (TANK) 2.6 14:07:27 39° W 14:08:18 66° NNW 14:10:33 10° ENE
NOAA 12 4.3 14:03:40 10° N 14:08:43 47° WNW 14:13:43 10° SW
Cosmos 2278 3.8 14:07:08 18° NW 14:11:14 55° WSW 14:16:43 10° S
SeaSat 1 4.4 14:09:29 10° N 14:10:52 12° NNW 14:10:52 12° NNW
NOSS 8 (A) 4.3 14:11:34 28° NNW 14:12:57 64° NE 14:16:08 10° SE
Cosmos 405 Rocket 2.6 14:12:10 10° S 14:15:24 68° E 14:18:40 10° NNE
Cosmos 1814 Rocket 4.2 14:10:12 10° SSW 14:15:25 78° ESE 14:20:44 10° NNE
CZ-4 R/B 4.2 14:11:28 10° N 14:15:45 37° WNW 14:19:57 10° SW
IRIDIUM 114 4.4 14:10:38 10° S 14:15:51 82° E 14:21:06 10° N
Cosmos 1553 Rocket 4.0 14:10:06 10° N 14:16:31 88° W 14:22:56 10° S
DMSP B5D1-3 4.5 14:12:00 10° S 14:17:06 70° WSW 14:22:13 10° NNW
Cosmos 1092 Rocket 4.0 14:12:41 10° SSW 14:18:52 57° WNW 14:25:01 10° N
CBERS-1 4.1 14:14:03 10° NNE 14:19:11 81° ESE 14:24:17 10° SSW
Cosmos 1707 4.3 14:18:25 10° NNE 14:21:09 26° ENE 14:23:52 10° SE
COSMOS 2455 4.2 14:21:35 17° W 14:22:59 19° WSW 14:26:59 10° SSW
Cosmos 2058 Rocket 3.5 14:19:58 10° NNW 14:24:09 40° W 14:28:15 10° SSW
IRIDIUM 103 4.3 14:19:47 10° S 14:25:01 84° W 14:30:17 10° N
ATLAS 2AS CENTAUR R/B 3.8 14:21:06 10° S 14:27:48 48° ESE 14:34:22 10° NE
IGS 5A 3.3 14:26:22 10° N 14:30:21 63° WNW 14:34:18 10° SSW
Thor Agena Rocket 3.7 14:30:27 10° NNE 14:35:32 78° ESE 14:40:34 10° SSW
Cosmos 2333 Rocket 2.8 14:34:40 11° NW 14:39:42 39° WSW 14:44:58 10° S
Cosmos 2360 Rocket 2.4 14:35:33 10° NW 14:41:03 55° WSW 14:46:29 10° S
SJ-12 4.4 14:37:43 10° NNE 14:41:30 59° ESE 14:45:15 10° S
Cosmos 1833 4.3 14:37:01 10° SSW 14:42:40 87° ESE 14:48:24 10° NNE
IRIDIUM 106 4.4 14:38:13 10° SSW 14:43:22 59° W 14:48:32 10° N
NOSS 3-1 (A) 4.4 14:38:08 11° NW 14:44:54 52° WSW 14:53:30 10° SSE
USA 234 3.8 14:44:29 10° E 14:50:43 48° NNE 14:56:57 10° NW
Cosmos 2237 Rocket 4.0 14:46:29 10° N 14:50:58 24° NE 14:55:26 10° E
Cosmos 2266 Rocket 4.2 14:44:35 10° S 14:51:00 84° E 14:57:20 10° N
Cosmos 1484 Rocket 3.4 14:48:09 10° N 14:51:03 26° WNW 14:53:55 10° SW
Cosmos 158 Rocket 4.0 14:46:21 10° SSW 14:51:38 65° WNW 14:56:52 10° NNE
Cosmos 1437 Rocket 2.4 14:50:16 10° N 14:53:44 87° E 14:57:11 10° SSE
Cosmos 1417 Rocket 4.5 14:48:11 10° N 14:54:21 82° W 15:00:29 10° S
Meteor 1-19 Rocket 4.4 14:49:24 10° NNW 14:55:13 89° W 15:01:10 10° S
Cosmos 1825 Rocket 4.3 14:53:41 10° S 14:58:01 58° E 15:02:22 10° NNE
Cosmos 2219 Rocket 2.3 14:53:24 10° NNW 14:59:01 66° WSW 15:04:35 10° SSE
Cosmos 1758 Rocket 3.9 14:56:02 10° SSW 15:00:15 44° WNW 15:04:28 10° N
Cosmos 2322 Rocket 3.0 14:58:46 10° NW 15:03:49 33° WSW 15:08:48 10° SSW
Cosmos 2151 2.9 15:02:40 10° SSW 15:06:41 59° WNW 15:10:46 10° N
Cosmos 1125 Rocket 3.5 15:01:56 10° NNW 15:07:12 75° WSW 15:12:24 10° SSE
Cosmos 2221 2.7 15:05:07 10° NNW 15:09:06 46° W 15:13:03 10° SSW
USA 229 4.4 15:01:53 10° NW 15:09:11 65° NE 15:17:14 10° SE
USA 229 DEB 4.4 15:01:59 10° NW 15:09:17 65° NE 15:17:19 10° SE
Cosmos 1743 3.0 15:08:26 10° SW 15:11:22 32° WNW 15:14:21 10° N
Cosmos 2322 4.0 15:06:28 10° NNW 15:12:09 71° ENE 15:17:47 10° SE
ERS-1 4.5 15:08:04 10° NNE 15:13:02 88° WNW 15:17:59 10° SSW
SL-08 R/B 3.5 15:08:38 10° SSE 15:13:13 78° ENE 15:17:55 10° NNW
SMAP 3.3 15:09:16 10° N 15:13:45 48° WNW 15:18:13 10° SW
